Regional Weather Roundup
Issued by NWS

Home | Current Version | Previous Version | Graphics & Text | Print | Product List | Glossary On
Versions: 1 2 3 4 5 6 7 8 9 10 11 12 13 14 15 16 17 18 19 20 21 22 23 24 25 26 27 28
000
ASUS45 KTFX 240410
RWRMT
MONTANA REGIONAL WEATHER ROUNDUP
NATIONAL WEATHER SERVICE GREAT FALLS MT
1000 PM MDT THU MAR 23 2017

NOTE: "FAIR" INDICATES FEW OR NO CLOUDS BELOW 12000 FEET WITH NO
SIGNIFICANT WEATHER AND/OR OBSTRUCTIONS TO VISIBILITY.

MTZ001>007-043-240500-
WEST OF THE DIVIDE

CITY           SKY/WX    TMP DP  RH WIND       PRES   REMARKS
KALISPELL      CLEAR     36  23  59 S3        30.05R
MISSOULA       CLEAR     36  26  67 W8        30.06R WCI  30
BUTTE          CLEAR     35  21  56 VRB6      30.03R WCI  30
MULLAN PASS    CLEAR     25  22  88 SE5       29.99S
ANACONDA         N/A     30  21  69 SW5       30.04R
DEER LODGE       N/A     37  21  52 CALM      30.06R
EUREKA           N/A     41  21  45 E6        30.04S
HAMILTON         N/A     37  25  60 CALM      30.05R
PLAINS           N/A     36  24  62 CALM      30.07R
$$

MTZ008-052>055-240500-
SOUTHWEST MONTANA

CITY           SKY/WX    TMP DP  RH WIND       PRES   REMARKS
BOZEMAN        CLEAR     41  26  55 CALM      29.99R
DILLON         CLEAR     35  22  58 NW7       30.00R WCI  29
W YELLOWSTONE  CLEAR     27  21  80 CALM      30.01R
ENNIS          CLEAR     34  19  55 CALM      30.04R
THREE FORKS      N/A     41  41 100 CALM      29.99R
TWIN BRIDGES     N/A     39  21  48 NW5       29.99
$$

MTZ009-010-012-014-046-048-049-054-240500-
EAST SLOPES AND CENTRAL MONTANA

CITY           SKY/WX    TMP DP  RH WIND       PRES   REMARKS
CUT BANK       MOCLDY    34  21  59 W10       29.96R WCI  26
GREAT FALLS    CLEAR     33  18  53 W8        29.99R WCI  26
MALMSTROM AFB  CLEAR     43  19  39 SW10      30.00R
HELENA         CLEAR     38  23  55 W9        30.01R WCI  31
AUGUSTA          N/A     35  20  53 W10       29.98R WCI  28
BOWMANS CRNR     N/A     35  18  51 W3        29.97R
CHOTEAU          N/A     36  21  55 S5        30.00R
CONRAD           N/A     31  25  78 S3        30.00R
FAIRFIELD        N/A     34  19  54 CALM      29.98R
POWER            N/A     28  18  66 NW8       29.98R WCI  20
RAYNESFORD       N/A     38  20  47 SW5       30.00R
$$

MTZ011-013-016-021-045-047-050-051-240500-
NORTH CENTRAL MONTANA

CITY           SKY/WX    TMP DP  RH WIND       PRES   REMARKS
HAVRE          CLEAR     39  28  64 SW3       29.94R
LEWISTOWN      CLEAR     35  19  52 S9        29.98R WCI  28
N BAR RANCH    MOCLDY    36  19  51 W5        30.00R
CHINOOK          N/A     43  28  56 NW3       29.94R
DENTON           N/A     37  22  55 SW9       29.94R WCI  30
FORT BENTON      N/A     43  21  42 MISG      29.99R
GEYSER           N/A     37  22  54 SW15      29.98R WCI  28
GRASS RANGE      N/A     38  22  53 SW9       29.95R WCI  31
STANFORD         N/A     38  22  51 NW13      29.99R WCI  30
WINIFRED         N/A     42  22  44 S7        29.96R
$$

MTZ017>020-022>027-061-062-240500-
NORTHEAST MONTANA

CITY           SKY/WX    TMP DP  RH WIND       PRES   REMARKS
GLASGOW        CLEAR     45  30  55 NW3       29.91R
JORDAN           N/A     40  31  70 W5        29.93R
SIDNEY         CLOUDY    46  37  71 NE6       29.91R
WOLF POINT     CLOUDY    45  37  73 NE8       29.93R
MALTA          CLEAR     36  28  75 W6        29.92R WCI  31
PLENTYWOOD       N/A     37  34  87 CALM      29.93R
POPLAR           N/A     43  36  75 E6        29.92R VSB 3/4
SCOBEY           N/A     38  25  60 CALM      29.91R
$$

MTZ028>42-056>058-240500-
SOUTHCENTRAL AND SOUTHEAST MONTANA

CITY           SKY/WX    TMP DP  RH WIND       PRES   REMARKS
BAKER          CLOUDY    44  39  82 W14       29.92R
BILLINGS       PTCLDY    45  36  70 CALM      29.96R
LIVINGSTON     CLEAR     31  21  66 SW5       29.99R
MILES CITY     CLOUDY    48  31  51 CALM      29.92R
BIG TIMBER     PTCLDY    45  21  39 VRB5      30.01R
EKALAKA          N/A     41  36  82 SW5       29.92R
FORSYTH          N/A     52  37  58 SW6       29.94R
HARLOWTON        N/A     35  22  59 NW8       29.99R WCI  29
LAUREL           N/A     42  29  60 NW1       29.95F
$$

REGIONAL REPORTS...DAKOTAS

CITY           SKY/WX    TMP DP  RH WIND       PRES   REMARKS
WILLISTON      CLOUDY    39  34  82 N7        29.93R
MINOT          CLEAR     32  30  92 NW6       29.92R WCI  26
DICKINSON      PTCLDY    40  37  89 SW9       29.90R
BEACH            N/A    N/A N/A N/A MISG        N/A
TIOGA            N/A     32  34 100 E5        29.93R
WATFORD CITY   MOCLDY    39  36  87 CALM      29.91R
BISMARCK       PTCLDY    38  35  89 NW5       29.91R
GRAND FORKS    LGT RAIN  35  34  96 CALM      29.89R
FARGO          CLOUDY    35  34  96 N3        29.88R FOG
BUFFALO SD       N/A     41  40  96 W6        29.87S
RAPID CITY     MOCLDY    41  38  89 NW24G33   29.84F
$$

REGIONAL REPORTS...WYOMING/IDAHO/WASHINGTON

CITY           SKY/WX    TMP DP  RH WIND       PRES   REMARKS
GILLETTE       CLOUDY    40  32  73 N3        29.98R
SHERIDAN       PTCLDY    43  34  70 SW3       29.97R
BUFFALO WY     CLOUDY    42  33  70 E5        29.99R
CODY           PTCLDY    40  33  76 SW7       29.99R
YELLOWSTONE LA   N/A     26  21  81 CALM      30.02R
IDAHO FALLS    PTCLDY    44  33  65 S16       30.01R
SALMON         CLEAR     37  21  52 CALM      30.00R
BOISE          CLEAR     44  27  51 SE8       30.04R
SPOKANE        PTCLDY    43  27  53 SE6       30.01F
$$

REGIONAL REPORTS...ALBERTA

CITY           SKY/WX    TMP DP  RH WIND       PRES   REMARKS
EDMONTON       PTCLDY    28  25  86 S2        29.95R
CALGARY        MOCLDY    36  25  64 NW5       29.95R
LETHBRIDGE     PTCLDY    41  21  45 W16       29.95R
MEDICINE HAT   CLEAR     46  32  57 E9        29.91R
WATERTON GATE    N/A     36  18  48 SW10        N/A  WCI  28
CARDSTON         N/A     34  18  51 SW5         N/A
MILK RIVER       N/A     34  25  69 SW1         N/A
ONEFOUR          N/A     37  23  56 NW14        N/A  WCI  29
$$

REGIONAL REPORTS...SASKATCHEWAN

CITY           SKY/WX    TMP DP  RH WIND       PRES   REMARKS
SWIFT CURRENT  CLEAR     34  30  86 E10       29.91R WCI  26
REGINA         PTCLDY    32  27  80 NE8       29.96R WCI  25
SASKATOON      CLEAR     28  23  80 NE10      30.02R WCI  19
CYPRESS HILLS    N/A     39  25  56 SE3         N/A
ROCKGLEN         N/A     39  32  75 NE1         N/A
ASSINIBOIA       N/A     18  16  93 S2          N/A
$$




USA.gov is the U.S. government's official web portal to all federal, state and local government web resources and services.